This demonstration page uses our WeatherBlox Daily Observations layout. Learn more.

Left ArrowRight Arrow

Hourly Observations for October 27, 2021

Temp ( °F °C ) Dew Point ( °F °C ) Humidity (%) Winds ( mph kmh ) Pressure ( in mb ) Visibility ( mi km ) Precip ( " mm )
12:15 am 00:15 Clear 37 3 37 3 100 100 N N/A 30.06 1018 5 8 N/A
12:35 am 00:35 Clear 37 3 37 3 100 100 N N/A 30.06 1018 10 16 N/A
12:55 am 00:55 Clear 39 4 39 4 100 100 N N/A 30.06 1018 10 16 N/A
1:15 am 01:15 Clear 37 3 37 3 100 100 N N/A 30.05 1018 10 16 N/A
1:35 am 01:35 Clear 37 3 37 3 100 100 N N/A 30.04 1017 10 16 N/A
1:55 am 01:55 Clear 36 2 36 2 100 100 N N/A 30.05 1018 10 16 N/A
2:15 am 02:15 Clear 37 3 37 3 100 100 N N/A 30.04 1017 10 16 N/A
2:35 am 02:35 Clear 36 2 36 2 100 100 N N/A 30.05 1018 10 16 N/A
2:55 am 02:55 Clear 37 3 37 3 100 100 NE 3 6 30.04 1017 10 16 N/A
3:15 am 03:15 Clear 36 2 36 2 100 100 N N/A 30.05 1018 10 16 N/A
3:35 am 03:35 Clear 34 1 34 1 100 100 N N/A 30.06 1018 5 8 N/A
3:55 am 03:55 Clear 36 2 36 2 100 100 N N/A 30.06 1018 10 16 N/A
4:15 am 04:15 Clear 34 1 34 1 100 100 N N/A 30.06 1018 7 11 N/A
4:35 am 04:35 Clear 34 1 34 1 100 100 NE 3 6 30.06 1018 5 8 N/A
4:55 am 04:55 Clear 34 1 34 1 100 100 N N/A 30.07 1018 7 11 N/A
5:15 am 05:15 Clear 34 1 34 1 100 100 N N/A 30.07 1018 7 11 N/A
5:35 am 05:35 Clear 32 undefined 32 undefined 100 100 ENE 3 6 30.07 1018 3 5 N/A
5:55 am 05:55 Clear 34 1 34 1 100 100 N N/A 30.07 1018 10 16 N/A
6:15 am 06:15 Clear 34 1 34 1 100 100 E 3 6 30.07 1018 10 16 N/A
6:35 am 06:35 Clear 34 1 34 1 100 100 N N/A 30.08 1019 10 16 N/A
6:55 am 06:55 Clear 32 undefined 32 undefined 100 100 N N/A 30.09 1019 10 16 N/A
7:15 am 07:15 Clear 32 undefined 32 undefined 100 100 N N/A 30.09 1019 10 16 N/A
7:35 am 07:35 Clear 32 undefined 32 undefined 100 100 N N/A 30.09 1019 10 16 N/A
7:55 am 07:55 Clear 32 undefined 32 undefined 100 100 E 3 6 30.09 1019 10 16 N/A
8:15 am 08:15 Sunny 32 undefined 32 undefined 100 100 N N/A 30.09 1019 10 16 N/A
8:35 am 08:35 Sunny 34 1 34 1 100 100 N N/A 30.09 1019 10 16 N/A
8:55 am 08:55 Sunny 32 undefined 32 undefined 100 100 N N/A 30.11 1019 10 16 N/A
9:15 am 09:15 Sunny 36 2 36 2 100 100 N N/A 30.11 1020 10 16 N/A
9:35 am 09:35 Sunny 39 4 39 4 100 100 N N/A 30.10 1019 10 16 N/A
9:55 am 09:55 Sunny 41 5 39 4 93 93 SE 3 6 30.10 1019 10 16 N/A
10:15 am 10:15 Sunny 45 7 39 4 81 81 ESE 5 7 30.09 1019 10 16 N/A
10:35 am 10:35 Sunny 46 8 39 4 76 76 SE 6 9 30.09 1019 10 16 N/A
10:55 am 10:55 Sunny 46 8 37 3 71 71 SE 7 11 30.09 1019 10 16 N/A
11:15 am 11:15 Sunny 48 9 37 3 66 66 SE 8 13 30.08 1019 10 16 N/A
11:35 am 11:35 Sunny 50 10 37 3 62 62 E 5 7 30.08 1019 10 16 N/A
11:55 am 11:55 Sunny 50 10 37 3 62 62 SE 8 13 30.07 1018 10 16 N/A
12:15 pm 12:15 Sunny 50 10 37 3 62 62 ESE 7 11 30.06 1018 10 16 N/A
12:35 pm 12:35 Sunny 52 11 37 3 58 58 E 6 9 30.06 1018 10 16 N/A
12:55 pm 12:55 Sunny 52 11 37 3 58 58 SE 5 7 30.05 1018 10 16 N/A
1:15 pm 13:15 Sunny 54 12 39 4 58 58 ESE 6 9 30.03 1017 10 16 N/A
1:35 pm 13:35 Sunny 54 12 37 3 54 54 ESE 6 9 30.01 1016 10 16 N/A
1:55 pm 13:55 Sunny 54 12 37 3 54 54 E 5 7 30.00 1016 10 16 N/A
2:15 pm 14:15 Sunny 55 13 39 4 55 55 ENE 8 13 29.98 1015 10 16 N/A
2:35 pm 14:35 Sunny 55 13 37 3 51 51 E 5 7 29.96 1015 10 16 N/A
2:55 pm 14:55 Sunny 55 13 39 4 55 55 ENE 9 15 29.96 1015 10 16 N/A
3:15 pm 15:15 Sunny 55 13 37 3 51 51 E 5 7 29.95 1014 10 16 N/A
3:35 pm 15:35 Sunny 57 14 37 3 48 48 E 10 17 29.94 1014 10 16 N/A
3:55 pm 15:55 Sunny 57 14 39 4 51 51 E 8 13 29.92 1013 10 16 N/A
4:15 pm 16:15 Sunny 57 14 37 3 48 48 E 7 11 29.92 1013 5 8 N/A
4:35 pm 16:35 Sunny 57 14 39 4 51 51 E 8 13 29.91 1013 7 11 N/A
4:55 pm 16:55 Sunny 57 14 39 4 51 51 E 8 13 29.90 1012 7 11 N/A
5:15 pm 17:15 Sunny 57 14 39 4 51 51 E 8 13 29.90 1012 7 11 N/A
5:35 pm 17:35 Sunny 55 13 39 4 55 55 E 8 13 29.89 1012 7 11 N/A
5:55 pm 17:55 Sunny 55 13 39 4 55 55 E 8 13 29.89 1012 10 16 N/A
6:15 pm 18:15 Sunny 54 12 39 4 58 58 E 7 11 29.89 1012 7 11 N/A
6:35 pm 18:35 Sunny 52 11 39 4 62 62 E 6 9 29.91 1013 10 16 N/A
6:55 pm 18:55 Clear 52 11 39 4 62 62 SE 3 6 29.93 1013 10 16 N/A
7:15 pm 19:15 Clear 50 10 39 4 67 67 ESE 5 7 29.93 1014 10 16 N/A
7:35 pm 19:35 Clear 46 8 41 5 82 82 E 6 9 29.93 1013 5 8 N/A
7:55 pm 19:55 Clear 46 8 41 5 82 82 E 7 11 29.92 1013 7 11 N/A
8:15 pm 20:15 Clear 46 8 43 6 87 87 E 8 13 29.91 1013 10 16 N/A
8:35 pm 20:35 Clear 48 9 43 6 82 82 E 10 17 29.89 1012 5 8 N/A
8:55 pm 20:55 Clear 48 9 43 6 82 82 E 10 17 29.89 1012 5 8 N/A
9:15 pm 21:15 Clear 48 9 43 6 82 82 E 12 19 29.87 1012 5 8 N/A
9:35 pm 21:35 Clear 48 9 45 7 87 87 E 13 20 29.87 1012 7 11 N/A
9:55 pm 21:55 Clear 46 8 45 7 93 93 E 15 24 29.87 1011 10 16 N/A
10:15 pm 22:15 Clear 46 8 45 7 93 93 E 14 22 29.87 1011 10 16 N/A
10:35 pm 22:35 Clear 45 7 45 7 100 100 E 10 17 29.87 1012 10 16 N/A
10:55 pm 22:55 Clear 45 7 45 7 100 100 E 9 15 29.86 1011 10 16 N/A
11:15 pm 23:15 Mostly Cloudy 45 7 45 7 100 100 E 9 15 29.86 1011 10 16 N/A
11:35 pm 23:35 Cloudy 46 8 46 8 100 100 E 7 11 29.87 1011 10 16 N/A
11:55 pm 23:55 Cloudy 46 8 46 8 100 100 E 12 19 29.85 1011 10 16 N/A

Powered by AerisWeather